Starlink 6324

operational
NORAD ID: 57353 Int'l Des: 2023-099 Owner: SPXS Country: US Constellation: starlink
LEOCIRCULAR

About Starlink 6324

Description loading...

Live Position

Loading 3D Globe...

Upcoming Passes

Altitude History

Altitude vs Time

uPlot chart will show altitude changes over time

Two-Line Element Set

1 57353U 23099AB 26063.16670139 .00079174 00000-0 51223-2 0 9999
2 57353 42.9993 278.4083 0002327 253.2008 64.6875 15.07236088 5817
Epoch: Mar 4, 2026 • Age: 8 hours

Current Status

Altitude 544.3 km
Velocity 7.59 km/s
Sub-Earth Point -3.18°S, 175.99°E
Launch Date Jul 16, 2023
Age 2.6 years
Type internet

Technical Details

Classification Payload
Mass 305.00 kg
Dry Mass 290.00 kg
Total Mass 305.00 kg
Length 0.20 m
Diameter 2.80 m
Span 9.00 m
Shape Box + pan
Manufacturer SPXS
Bus Type Starlink
Phase Status In Orbit
Owner/State SPXS/US

Large Constellations

Loading constellations...